Location: Alafon
(8.4500°N, 4.2333°E)
Time: 00:55:37
(UTC+00:00)

SJ 16-02 - Pass Details

Date: 05 July 2020
Orbit: 606 x 617 km, 75.0° (Epoch: 06 August)

Event Time Altitude Azimuth Distance (km) Brightness Sun altitude
Rises 19:46:38 0° 326° (NW) 2,865 5.8 -23.3°
Reaches altitude 10° 19:49:16 10° 311° (NW) 1,960 5.0 -23.9°
Maximum altitude 19:52:39 22° 260° (W) 1,336 3.6 -24.6°
Enters shadow 19:55:50 11° 211° (SSW) 1,898 3.8 -25.3°
